• In Lithuania
  • List of Countries
  • For 7 days
  • Water Temperature
  • Satellite Maps
  • Weather Map
  • Weather Widgets
  • user-avatar
    Login

    Hourly Weather Nikolskoe

    Today, 24 October, Wednesday

    Time Temperature Precipitation Wind Pressure Humidity
    00:00 +15°C° 0 mm 1 mps 748 mmHg 82%
    01:00 +15°C° 0.2 mm 1 mps 747 mmHg 84%
    02:00 +15°C° 0.2 mm 1 mps 747 mmHg 85%
    03:00 +15°C° 0.2 mm 1 mps 746 mmHg 86%
    04:00 +15°C° 0.2 mm 1 mps 746 mmHg 87%
    05:00 +14°C° 0.2 mm 2 mps 746 mmHg 88%
    06:00 +14°C° 0.2 mm 2 mps 745 mmHg 89%
    07:00 +15°C° 0 mm 2 mps 745 mmHg 84%
    08:00 +16°C° 0 mm 3 mps 745 mmHg 80%
    09:00 +16°C° 0 mm 3 mps 744 mmHg 76%
    10:00 +18°C° 0 mm 3 mps 743 mmHg 71%
    11:00 +19°C° 0 mm 4 mps 743 mmHg 66%
    12:00 +20°C° 0 mm 4 mps 742 mmHg 61%
    13:00 +21°C° 0 mm 5 mps 741 mmHg 59%
    14:00 +21°C° 0 mm 5 mps 740 mmHg 57%
    15:00 +22°C° 0 mm 5 mps 739 mmHg 55%
    16:00 +21°C° 0 mm 5 mps 738 mmHg 60%
    17:00 +20°C° 0 mm 4 mps 738 mmHg 64%
    18:00 +18°C° 0 mm 4 mps 737 mmHg 68%
    19:00 +18°C° 0 mm 4 mps 737 mmHg 73%
    20:00 +17°C° 0 mm 3 mps 736 mmHg 78%
    21:00 +16°C° 0 mm 3 mps 736 mmHg 82%
    22:00 +16°C° 0 mm 3 mps 736 mmHg 83%
    23:00 +16°C° 0 mm 3 mps 736 mmHg 85%

    Tomorrow, 25 October, Thursday

    Time Temperature Precipitation Wind Pressure Humidity
    00:00 +16°C° 0 mm 3 mps 736 mmHg 86%
    01:00 +16°C° 0 mm 2 mps 735 mmHg 88%
    02:00 +15°C° 0 mm 2 mps 735 mmHg 91%
    03:00 +15°C° 0 mm 1 mps 735 mmHg 94%
    04:00 +15°C° 0 mm 1 mps 734 mmHg 94%
    05:00 +15°C° 0 mm 2 mps 734 mmHg 95%
    06:00 +15°C° 0 mm 2 mps 734 mmHg 95%
    07:00 +14°C° 0 mm 3 mps 734 mmHg 91%
    08:00 +16°C° 0 mm 3 mps 734 mmHg 86%
    09:00 +15°C° 0 mm 4 mps 734 mmHg 82%
    10:00 +17°C° 0 mm 4 mps 734 mmHg 77%
    11:00 +16°C° 0 mm 5 mps 735 mmHg 73%
    12:00 +16°C° 0 mm 6 mps 735 mmHg 68%
    13:00 +15°C° 0 mm 7 mps 735 mmHg 68%
    14:00 +15°C° 0 mm 7 mps 736 mmHg 68%
    15:00 +14°C° 0 mm 7 mps 736 mmHg 68%
    16:00 +12°C° 0.4 mm 7 mps 737 mmHg 68%
    17:00 +12°C° 0.4 mm 7 mps 738 mmHg 68%
    18:00 +11°C° 0.4 mm 7 mps 739 mmHg 68%
    19:00 +11°C° 0.1 mm 6 mps 740 mmHg 66%
    20:00 +10°C° 0.1 mm 6 mps 741 mmHg 64%
    21:00 +10°C° 0.1 mm 6 mps 741 mmHg 62%
    22:00 +10°C° 0.3 mm 5 mps 742 mmHg 63%
    23:00 +10°C° 0.3 mm 4 mps 742 mmHg 65%

    Day after tomorrow, 26 October, Friday

    Time Temperature Precipitation Wind Pressure Humidity
    00:00 +9°C° 0.3 mm 3 mps 743 mmHg 66%
    01:00 +9°C° 0.3 mm 3 mps 743 mmHg 69%
    02:00 +8°C° 0.3 mm 4 mps 743 mmHg 72%
    03:00 +7°C° 0.3 mm 4 mps 744 mmHg 74%
    04:00 +7°C° 0.1 mm 4 mps 744 mmHg 75%
    05:00 +7°C° 0.1 mm 4 mps 745 mmHg 75%
    06:00 +7°C° 0.1 mm 4 mps 745 mmHg 75%
    07:00 +7°C° 0.1 mm 4 mps 745 mmHg 74%
    08:00 +8°C° 0.1 mm 4 mps 746 mmHg 72%
    09:00 +8°C° 0.1 mm 4 mps 746 mmHg 70%
    10:00 +10°C° 0 mm 4 mps 746 mmHg 66%
    11:00 +11°C° 0 mm 4 mps 746 mmHg 62%
    12:00 +12°C° 0 mm 4 mps 746 mmHg 57%
    13:00 +12°C° 0 mm 3 mps 746 mmHg 55%
    14:00 +13°C° 0 mm 3 mps 746 mmHg 52%
    15:00 +13°C° 0 mm 3 mps 746 mmHg 50%
    16:00 +12°C° 0 mm 3 mps 746 mmHg 55%
    17:00 +11°C° 0 mm 3 mps 746 mmHg 61%
    18:00 +10°C° 0 mm 4 mps 747 mmHg 67%
    19:00 +10°C° 0.3 mm 4 mps 747 mmHg 69%
    20:00 +9°C° 0.3 mm 5 mps 748 mmHg 71%
    21:00 +9°C° 0.3 mm 5 mps 748 mmHg 72%
    22:00 +9°C° 0.1 mm 5 mps 749 mmHg 72%
    23:00 +9°C° 0.1 mm 5 mps 750 mmHg 72%

    27 October, Saturday

    Time Temperature Precipitation Wind Pressure Humidity
    00:00 +10°C° 0.1 mm 4 mps 751 mmHg 72%
    01:00 +8°C° 0 mm 4 mps 751 mmHg 72%
    02:00 +7°C° 0 mm 4 mps 752 mmHg 73%
    03:00 +7°C° 0 mm 4 mps 752 mmHg 74%
    04:00 +7°C° 0 mm 4 mps 753 mmHg 75%
    05:00 +6°C° 0 mm 4 mps 754 mmHg 75%
    06:00 +6°C° 0 mm 4 mps 754 mmHg 76%
    07:00 +7°C° 0 mm 4 mps 755 mmHg 70%
    08:00 +10°C° 0 mm 4 mps 755 mmHg 65%
    09:00 +11°C° 0 mm 4 mps 755 mmHg 59%
    10:00 +12°C° 0 mm 4 mps 755 mmHg 55%
    11:00 +13°C° 0 mm 4 mps 755 mmHg 51%
    12:00 +15°C° 0 mm 4 mps 755 mmHg 48%
    13:00 +15°C° 0 mm 4 mps 755 mmHg 47%
    14:00 +17°C° 0 mm 3 mps 755 mmHg 46%
    15:00 +17°C° 0 mm 3 mps 755 mmHg 45%
    16:00 +16°C° 0 mm 3 mps 755 mmHg 49%
    17:00 +15°C° 0 mm 2 mps 755 mmHg 53%
    18:00 +14°C° 0 mm 2 mps 756 mmHg 58%
    19:00 +12°C° 0 mm 3 mps 756 mmHg 60%
    20:00 +12°C° 0 mm 3 mps 756 mmHg 62%
    21:00 +11°C° 0 mm 3 mps 756 mmHg 63%
    22:00 +11°C° 0 mm 3 mps 756 mmHg 64%
    23:00 +10°C° 0 mm 2 mps 756 mmHg 64%

    28 October, Sunday

    Time Temperature Precipitation Wind Pressure Humidity
    00:00 +10°C° 0 mm 2 mps 756 mmHg 64%
    01:00 +10°C° 0 mm 2 mps 756 mmHg 65%
    02:00 +9°C° 0 mm 2 mps 756 mmHg 65%
    03:00 +10°C° 0 mm 1 mps 756 mmHg 65%
    04:00 +10°C° 0 mm 1 mps 756 mmHg 65%
    05:00 +10°C° 0 mm 1 mps 756 mmHg 66%
    06:00 +9°C° 0 mm 1 mps 756 mmHg 66%
    07:00 +11°C° 0 mm 1 mps 756 mmHg 60%
    08:00 +12°C° 0 mm 1 mps 757 mmHg 54%
    09:00 +14°C° 0 mm 1 mps 757 mmHg 49%
    10:00 +16°C° 0 mm 1 mps 757 mmHg 44%
    11:00 +18°C° 0 mm 1 mps 757 mmHg 39%
    12:00 +20°C° 0 mm 1 mps 756 mmHg 34%
    13:00 +21°C° 0 mm 1 mps 756 mmHg 33%
    14:00 +21°C° 0 mm 1 mps 756 mmHg 31%
    15:00 +22°C° 0 mm 1 mps 756 mmHg 30%
    16:00 +20°C° 0 mm 1 mps 757 mmHg 34%
    17:00 +18°C° 0 mm 1 mps 757 mmHg 39%
    18:00 +16°C° 0 mm 1 mps 757 mmHg 43%
    19:00 +15°C° 0 mm 1 mps 757 mmHg 45%
    20:00 +15°C° 0 mm 1 mps 758 mmHg 47%
    21:00 +14°C° 0 mm 1 mps 758 mmHg 49%
    22:00 +14°C° 0 mm 1 mps 758 mmHg 50%
    23:00 +13°C° 0 mm 1 mps 758 mmHg 52%

    29 October, Monday

    Time Temperature Precipitation Wind Pressure Humidity
    00:00 +13°C° 0 mm 1 mps 758 mmHg 53%
    01:00 +13°C° 0 mm 1 mps 757 mmHg 54%
    02:00 +12°C° 0 mm 1 mps 757 mmHg 55%
    03:00 +12°C° 0 mm 1 mps 757 mmHg 56%
    04:00 +12°C° 0 mm 1 mps 757 mmHg 57%
    05:00 +11°C° 0 mm 1 mps 757 mmHg 58%
    06:00 +11°C° 0 mm 1 mps 757 mmHg 60%
    07:00 +13°C° 0 mm 1 mps 757 mmHg 57%
    08:00 +14°C° 0 mm 2 mps 757 mmHg 54%
    09:00 +16°C° 0 mm 2 mps 758 mmHg 51%
    10:00 +17°C° 0 mm 2 mps 757 mmHg 48%
    11:00 +19°C° 0 mm 3 mps 757 mmHg 44%
    12:00 +20°C° 0 mm 4 mps 757 mmHg 40%
    13:00 +21°C° 0 mm 4 mps 756 mmHg 40%
    14:00 +21°C° 0 mm 4 mps 756 mmHg 41%
    15:00 +21°C° 0 mm 4 mps 756 mmHg 41%
    16:00 +20°C° 0 mm 4 mps 756 mmHg 47%
    17:00 +18°C° 0 mm 3 mps 756 mmHg 53%
    18:00 +17°C° 0 mm 3 mps 756 mmHg 59%
    19:00 +16°C° 0 mm 3 mps 756 mmHg 64%
    20:00 +14°C° 0 mm 3 mps 756 mmHg 68%
    21:00 +13°C° 0 mm 3 mps 756 mmHg 73%
    22:00 +14°C° 0 mm 2 mps 755 mmHg 74%
    23:00 +13°C° 0 mm 2 mps 755 mmHg 76%

    30 October, Tuesday

    Time Temperature Precipitation Wind Pressure Humidity
    00:00 +13°C° 0 mm 2 mps 755 mmHg 78%
    01:00 +12°C° 0 mm 2 mps 755 mmHg 81%
    02:00 +12°C° 0 mm 2 mps 755 mmHg 84%
    03:00 +10°C° 0 mm 2 mps 755 mmHg 86%
    04:00 +10°C° 0 mm 2 mps 755 mmHg 89%
    05:00 +10°C° 0 mm 2 mps 755 mmHg 91%
    06:00 +10°C° 0 mm 2 mps 755 mmHg 94%
    07:00 +12°C° 0 mm 2 mps 755 mmHg 90%
    08:00 +13°C° 0 mm 2 mps 755 mmHg 86%
    09:00 +14°C° 0 mm 2 mps 754 mmHg 83%
    10:00 +15°C° 0 mm 2 mps 754 mmHg 75%
    11:00 +17°C° 0 mm 2 mps 754 mmHg 68%
    12:00 +18°C° 0 mm 2 mps 754 mmHg 60%
    13:00 +19°C° 0 mm 2 mps 754 mmHg 57%
    14:00 +20°C° 0 mm 2 mps 754 mmHg 53%
    15:00 +21°C° 0 mm 2 mps 753 mmHg 50%
    16:00 +20°C° 0 mm 1 mps 753 mmHg 56%
    17:00 +18°C° 0 mm 1 mps 753 mmHg 62%
    18:00 +16°C° 0 mm 1 mps 753 mmHg 68%
    19:00 +15°C° 0 mm 1 mps 753 mmHg 70%
    20:00 +14°C° 0 mm 0 mps 753 mmHg 73%
    21:00 +13°C° 0 mm 0 mps 753 mmHg 75%
    22:00 +13°C° 0 mm 0 mps 753 mmHg 77%
    23:00 +12°C° 0 mm 0 mps 753 mmHg 79%
    Show more